Regional Weather Roundup
Issued by NWS

Home | Current Version | Previous Version | Text Only | Print | Product List | Glossary Off
Versions: 1 2 3 4 5 6 7 8 9 10 11 12 13 14 15 16 17 18 19 20 21 22 23 24 25 26 27

000
ASUS42 KTBW 231018
RWRFL
FLORIDA REGIONAL WEATHER ROUNDUP
NATIONAL WEATHER SERVICE TAMPA BAY RUSKIN FL
600 AM EDT SUN JUL 23 2017

NOTE: "FAIR" INDICATES FEW OR NO CLOUDS BELOW 12,000 FEET WITH NO
SIGNIFICANT WEATHER AND/OR OBSTRUCTIONS TO VISIBILITY.

FLZ001>010-012>015-112-114-115-231100-
PANHANDLE FLORIDA

CITY           SKY/WX    TMP DP  RH WIND       PRES   REMARKS
PENSACOLA      PTCLDY    81  73  76 SW3       29.95S
PENSACOLA NAS  MOCLDY    78  75  90 NW5       29.95R
MILTON NAS     CLEAR     73  73 100 CALM      29.96
CRESTVIEW      CLEAR     73  71  93 CALM      29.98R
DUKE FIELD     FAIR      74  73  95 CALM      29.96R
VALPARAISO     SHOWER    79  72  78 W13G22    29.96R
MARY ESTHER    MOCLDY    78  75  92 CALM      29.95R
PANAMA CITY    CLOUDY    76  73  91 W8        29.96R
TYNDALL AFB    PTCLDY    82  74  77 SW7       29.96S
APALACHICOLA   PTCLDY    78  77  96 CALM      29.97R

STATION/POSITION SKY/WX   TEMP    WIND        PRES    WAVE   SWELL
                          AIR SEA DIR/SP/G            HT/PER HT/PER
                          (F)     (DEG/KT/KT) (MB)    (FT/S) (FT/S)
30.1N   87.6W              84 87  260/ 16/ 19 1013.8R   1/ 4
29.2N   88.2W              84 86  260/ 14/ 16 1014.9
28.8N   86.0W              83 84  240/ 14/ 16 1014.8R   2/ 4
PANAMA CITY BEAC           83     240/ 11/ 12 1014.9R
TOWER C          NOT AVBL
28.5N   84.5W              82 86  230/ 16/ 21 1015.2R   2/ 3

$$
FLZ011-016>038-118-127-128-134-139-239-231100-
NORTH FLORIDA

CITY           SKY/WX    TMP DP  RH WIND       PRES   REMARKS
MARIANNA       CLEAR     77  76  96 S3        29.96S
TALLAHASSEE    PTCLDY    75  74  96 CALM      29.98R
PERRY          LGT RAIN  76  75  95 SE5       30.00R
LIVE OAK       CLOUDY    73  73 100 CALM      30.02R
CROSS CITY     LGT RAIN  73  73  98 W5        30.05S
LAKE CITY      MOCLDY    73  73 100 CALM      30.02R
GAINESVILLE    LGT RAIN  73  72  96 SE3       30.03F
WILLISTON      CLEAR     75  75 100 CALM      30.02R FOG
PALATKA        FAIR      75  75 100 W3        30.02R
MAYPORT NAS    CLEAR     76  75  97 SW6       30.01R
JACKSONVILLE   CLOUDY    76  76 100 SW6       30.00R
JAX NAS        PTCLDY    77  75  93 SW8       30.02R
JAX CECIL      MOCLDY    75  75 100 SW3       30.01R
FERNANDINA BEA FAIR      79  77  94 SW7       30.00R
ST AUGUSTINE   CLEAR     75  74  96 SW5       30.01R
PALM COAST     CLEAR     73  73 100 SW3       30.02R

STATION/POSITION SKY/WX   TEMP    WIND        PRES    WAVE   SWELL
                          AIR SEA DIR/SP/G            HT/PER HT/PER
                          (F)     (DEG/KT/KT) (MB)    (FT/S) (FT/S)
SHELL POINT      NOT AVBL
KEATON BEACH               77     110/  8/  9 1015.3R
CEDAR KEY                  76     340/  2/  4 1016.0R
FERNANDINA                 78 84  190/  2/  6 1016.7R
30.7N   81.3W                 81                N/A     2/ 8
MAYPORT                    77 82  250/  7/  9 1016.4R
31.4N   80.9W              80 80  210/ 14/ 16 1014.8R   3/ 9   2/ 9
ST AUGUSTINE               76 77  200/  6/  7 1016.4R

$$
FLZ040-043>046-052-053-057-058-063-144-231100-
INTERIOR CENTRAL FLORIDA

CITY           SKY/WX    TMP DP  RH WIND       PRES   REMARKS
OCALA          MOCLDY    75  75 100 CALM      30.03R
THE VILLAGES     N/A     77  77 100 CALM      29.93R
LEESBURG       CLOUDY    79  76  90 S6        30.03R
SANFORD        CLOUDY    76  73  91 S7        30.02R
ORLANDO INTL   CLOUDY    74  74 100 CALM      30.03R
KISSIMMEE      CLOUDY    75  73  93 CALM      30.04R
WINTER HAVEN   MOCLDY    76  72  87 S5        30.04R
LAKELAND       CLEAR     75  75 100 S5        30.03S
BARTOW         CLOUDY    73 N/A N/A S5        30.04R
SEBRING        FAIR      74  72  93 CALM      30.03S
OKEECHOBEE     PTCLDY    72  70  94 CALM      30.04R

$$
FLZ041-047-054-059-064-141-147-231100-
EAST CENTRAL FLORIDA

CITY           SKY/WX    TMP DP  RH WIND       PRES   REMARKS
DAYTONA BEACH  CLOUDY    76  75  97 S5        30.02R
DELAND         PTCLDY    75  73  94 S5        30.02R
CAPE CANAVERAL CLOUDY    76  75  97 CALM      30.02R
PATRICK AFB    CLOUDY    77  74  90 SW6       30.02R
MELBOURNE      PTCLDY    76  73  91 SW3       30.03R
VERO BEACH     PTCLDY    74  72  93 CALM      30.04R
FT PIERCE      PTCLDY    74  72  93 CALM      30.04R
STUART         MOCLDY    77  77 100 CALM      30.05R

STATION/POSITION SKY/WX   TEMP    WIND        PRES    WAVE   SWELL
                          AIR SEA DIR/SP/G            HT/PER HT/PER
                          (F)     (DEG/KT/KT) (MB)    (FT/S) (FT/S)
28.5N   80.2W              82 83  200/  8/ 10 1017.9R   2/ 9   2/ 9
28.9N   78.5W              84 85  180/ 10/ 12 1016.8R   3/ 9   3/ 9
TRIDENT PIER               79 81  160/  3/  4 1018.4R
28.4N   80.5W                 82                N/A     1/ 9
27.5N   80.2W                 80                N/A     2/ 9

$$
FLZ050-056-061-142-242-148-248-149-249-151-251-155-255-
160-260-231100-
WEST CENTRAL FLORIDA

CITY           SKY/WX    TMP DP  RH WIND       PRES   REMARKS
CRYSTAL RIVER  MOCLDY    77  75  94 CALM      30.00S
INVERNESS      FAIR      73  73 100 CALM      30.02S
BROOKSVILLE    PTCLDY    75  74  96 SE3       30.02S
CLEARWATER AIR FAIR      75  75 100 SE3       30.01S
ST PETE CLEARW CLOUDY    79  76  90 SE5       30.01S
TAMPA INTL     CLOUDY    79  75  87 S5        30.02S
TAMPA EXEC     CLOUDY    77  73  88 CALM      30.02S
PLANT CITY     CLOUDY    77  75  94 S3        30.04S
MACDILL AFB    CLOUDY    79  79 100 SE7       30.01S
PETER O KNIGHT DRIZZLE   81  79  94 SE7       30.01F
ST PETERSBURG  LGT RAIN  81  77  88 W3        30.00R
SARASOTA       CLOUDY    76  74  93 SE9       30.00R
VENICE         FAIR      79  77  94 SE7       30.02R

STATION/POSITION SKY/WX   TEMP    WIND        PRES    WAVE   SWELL
                          AIR SEA DIR/SP/G            HT/PER HT/PER
                          (F)     (DEG/KT/KT) (MB)    (FT/S) (FT/S)
27.3N   84.2W                 87                N/A     2/ 7
CLEARWATER BEACH           78 87  130/  7/ 11 1016.2R
MIDDLE TAMPA BAY           78     170/ 11/ 12 1016.4R
VENICE                     78 88  110/  7/  9 1016.4R

$$
FLZ066-069-070-075>078-162-262-165-265-231100-
SOUTHWEST FLORIDA AND KEYS

CITY           SKY/WX    TMP DP  RH WIND       PRES   REMARKS
PUNTA GORDA    PTCLDY    76  74  93 E3        30.03S
FT MYERS       PTCLDY    76  76 100 E5        30.01S
SOUTHWEST INTL PTCLDY    76  74  93 E5        30.02S
NAPLES         MOCLDY    76  75  97 E3        30.01S
MARCO ISLAND   CLEAR     77  73  88 NE5       30.02R
IMMOKALEE      FAIR      75  73  94 CALM      30.03S
MARATHON       PTCLDY    84  77  79 E6        30.00S
KEY WEST NAS   PTCLDY    82  77  84 SE9       30.01R
KEY WEST INTL  CLEAR     84  75  74 SE9       30.01R

STATION/POSITION SKY/WX   TEMP    WIND        PRES    WAVE   SWELL
                          AIR SEA DIR/SP/G            HT/PER HT/PER
                          (F)     (DEG/KT/KT) (MB)    (FT/S) (FT/S)
NAPLES                        87   80/  3/  6 1016.4R
DRY TORTUGAS               85     140/  9/ 10 1016.1R
SAND KEY                   84     140/ 12/ 13 1016.6R

$$
FLZ067-068-071>074-168-172>174-231100-
SOUTHEAST FLORIDA

CITY           SKY/WX    TMP DP  RH WIND       PRES   REMARKS
W PALM BEACH   PTCLDY    79  75  87 CALM      30.03R
FT LAUDER-EXEC PTCLDY    80  73  79 CALM      30.01S
FT LAUDERDALE  MOCLDY    83  76  79 SE6       30.01R
POMPANO BEACH  PTCLDY    84  75  74 SE6       30.02R
PEMBROKE PINES PTCLDY    81  76  84 CALM      30.03R
OPA LOCKA      PTCLDY    82  78  88 SE5       30.02R
MIAMI          MOCLDY    83  75  77 VRB3      30.02R
WEST KENDALL   PTCLDY    77  74  90 CALM      30.01S
HOMESTEAD      PTCLDY    79  78  96 CALM      30.01R

STATION/POSITION SKY/WX   TEMP    WIND        PRES    WAVE   SWELL
                          AIR SEA DIR/SP/G            HT/PER HT/PER
                          (F)     (DEG/KT/KT) (MB)    (FT/S) (FT/S)
PORT EVERGLADES            84     150/  8/ 12 1016.4R
VIRGINIA KEY               85 87  140/  8/ 12 1015.8R
LAKE WORTH                        150/  3/  8   N/A
FOWEY ROCKS                84 87  130/ 12/ 13 1017.0R
SETTLEMENT POINT           83     150/  5/  7 1017.2R

$$





USA.gov is the U.S. government's official web portal to all federal, state and local government web resources and services.